Location: Charleville
(26.4021°S, 146.2454°E)
Time: 06:17:41
(UTC+10:00)

X-37B - Pass Details

Date: 08 December 2021
Orbit: 334 x 337 km, 45.0° (Epoch: 11 January)

Event Time Altitude Azimuth Distance (km) Brightness Sun altitude
Exits shadow 03:54:22 19° 19° (NNE) 885 2.2 -16.2°
Maximum altitude 03:55:11 22° 45° (NE) 813 2.3 -16.1°
Drops below altitude 10° 03:57:29 10° 98° (E) 1,284 4.2 -15.7°
Sets 03:59:46 0° 115° (ESE) 2,130 6.0 -15.3°
